Fargo, ND

8:35 AM CST on November 20, 2017 (GMT -0600)
Hector International

Weather History for KFAR - April, 2013

Change the Weather History Date:

Tuesday, April 9, 2013

  Actual Average Record
Temperature  
Mean Temperature 22 °F 41 °F  
Max Temperature 29 °F 52 °F 86 °F (1887)
Min Temperature 15 °F 30 °F 7 °F (1997)
Degree Days  
Heating Degree Days 43 24  
Month to date heating degree days 336 238  
Since 1 July heating degree days 8397 8068  
Cooling Degree Days 0 0  
Month to date cooling degree days 0 0  
Year to date cooling degree days 0 0  
Moisture  
Dew Point 12 °F    
Average Humidity 66    
Maximum Humidity 73    
Minimum Humidity 58    
Precipitation  
Precipitation 0.00 in 0.04 in 0.41 in (1933)
Month to date precipitation 0.55 0.36  
Year to date precipitation 4.18 2.97  
Snow  
Snow 0.00 in 0.10 in 3.00 in (1933)
Month to date snowfall 0.2 1.2  
Since 1 July snowfall 51.9 48.3  
Snow Depth 5.00 in    
Sea Level Pressure  
Sea Level Pressure 30.36 in    
Wind  
Wind Speed 19 mph (North)    
Max Wind Speed 29 mph    
Max Gust Speed 35 mph    
Visibility 10 miles    
Events      
T = Trace of Precipitation, MM = Missing Value Source: NWS Daily Summary

Daily Weather History Graph

Daily Weather History Graph

Search for Another Location

Airport or City:

Trip Planner

Search our weather history database for the weather conditions in past years. The results will help you decide how hot, cold, wet, or windy it might be!

Date:

Astronomy

Apr. 09, 2013 Rise Set
Actual Time 6:50 AM CDT 8:07 PM CDT
Civil Twilight 6:19 AM CDT 8:39 PM CDT
Nautical Twilight 5:41 AM CDT 9:17 PM CDT
Astronomical Twilight 5:00 AM CDT 9:57 PM CDT
Moon 6:15 AM CDT (4/9) 7:45 PM CDT (4/9)
Length of Visible Light 14h 20m
Length of Day
13h 17m
Waning Crescent, 1% of the Moon is Illuminated
Apr 9
Waning Crescent
Apr 10
New
Apr 18
First Quarter
Apr 25
Full
May 2
Last Quarter

Hourly Weather History & Observations

Time (CDT) Temp. Windchill Dew Point Humidity Pressure Visibility Wind Dir Wind Speed Gust Speed Precip Events Conditions
12:53 AM 19.9 °F 2.8 °F 10.0 °F 65% 30.32 in 10.0 mi North 24.2 mph 29.9 mph N/A   Overcast
1:53 AM 19.0 °F 3.2 °F 9.0 °F 65% 30.32 in 10.0 mi North 19.6 mph 28.8 mph N/A   Mostly Cloudy
2:53 AM 18.0 °F 0.9 °F 7.0 °F 62% 30.34 in 10.0 mi North 21.9 mph 29.9 mph N/A   Clear
3:53 AM 17.1 °F 1.0 °F 8.1 °F 68% 30.33 in 10.0 mi North 18.4 mph 25.3 mph N/A   Clear
4:53 AM 16.0 °F 0.6 °F 7.0 °F 68% 30.35 in 10.0 mi North 16.1 mph - N/A   Clear
5:53 AM 15.1 °F -3.3 °F 6.1 °F 68% 30.33 in 10.0 mi North 23.0 mph 27.6 mph N/A   Clear
6:53 AM 15.1 °F -2.9 °F 5.0 °F 64% 30.34 in 10.0 mi North 21.9 mph 31.1 mph N/A   Clear
7:53 AM 16.0 °F -1.3 °F 5.0 °F 62% 30.36 in 10.0 mi North 20.7 mph 25.3 mph N/A   Clear
8:53 AM 16.0 °F -1.7 °F 6.1 °F 65% 30.39 in 10.0 mi North 21.9 mph - N/A   Clear
9:53 AM 16.0 °F -0.9 °F 8.1 °F 71% 30.39 in 10.0 mi North 19.6 mph - N/A   Partly Cloudy
10:05 AM 15.8 °F -1.9 °F 8.6 °F 73% 30.34 in 10.0 mi North 21.9 mph 26.5 mph N/A   Mostly Cloudy
10:12 AM 17.6 °F 0.5 °F 8.6 °F 68% 30.34 in 10.0 mi North 21.9 mph - N/A   Mostly Cloudy
10:53 AM 18.0 °F 1.3 °F 8.1 °F 65% 30.41 in 10.0 mi North 20.7 mph - N/A   Mostly Cloudy
11:03 AM 17.6 °F 2.2 °F 8.6 °F 68% 30.37 in 10.0 mi North 17.3 mph - N/A   Partly Cloudy
11:53 AM 19.9 °F 5.2 °F 10.9 °F 68% 30.41 in 10.0 mi North 17.3 mph - N/A   Clear
12:53 PM 21.0 °F 5.4 °F 12.0 °F 68% 30.40 in 10.0 mi North 20.7 mph 24.2 mph N/A   Clear
1:53 PM 24.1 °F 12.0 °F 15.1 °F 69% 30.40 in 10.0 mi North 13.8 mph - N/A   Clear
2:53 PM 27.0 °F 12.5 °F 17.1 °F 66% 30.34 in 10.0 mi North 23.0 mph 29.9 mph N/A   Clear
3:53 PM 28.0 °F 14.6 °F 18.0 °F 66% 30.39 in 10.0 mi North 20.7 mph - N/A   Clear
4:53 PM 28.9 °F 14.5 °F 18.0 °F 64% 30.32 in 10.0 mi North 25.3 mph 34.5 mph N/A   Clear
5:53 PM 28.0 °F 13.9 °F 15.1 °F 58% 30.36 in 10.0 mi North 23.0 mph 28.8 mph N/A   Clear
6:53 PM 27.0 °F 13.9 °F 17.1 °F 66% 30.33 in 10.0 mi North 18.4 mph - N/A   Clear
7:53 PM 27.0 °F 14.7 °F 17.1 °F 66% 30.31 in 10.0 mi North 16.1 mph - N/A   Clear
8:53 PM 26.1 °F 11.6 °F 16.0 °F 66% 30.34 in 10.0 mi North 21.9 mph - N/A   Clear
9:53 PM 26.1 °F 14.0 °F 16.0 °F 66% 30.37 in 10.0 mi North 15.0 mph - N/A   Mostly Cloudy
10:53 PM 26.1 °F 14.0 °F 16.0 °F 66% 30.37 in 10.0 mi North 15.0 mph - N/A   Mostly Cloudy
11:53 PM 25.0 °F 14.2 °F 16.0 °F 69% 30.35 in 10.0 mi North 11.5 mph - N/A   Mostly Cloudy